STARLINK-35972, 66638

Orbit data source: Space-Track

STARLINK-35972, 66638 is a payload satellite owned by SpaceX/Seattle (US) in LEO that was launched on Sun, 23 Nov 2025 UTC via an FALCON 9 launch vehicle from the Air Force Western Test Range (AFWTR). Payload-class satellites include a variety of spacecraft equipped with specific instruments for various scientific and technological missions. These include communications satellites like Starlink; space stations such as the ISS; scientific satellites like the Hubble; Earth observation satellites from companies like Planet Labs, Umbra, and HawkEye 360; GPS; miniature CubeSats for education and research; and military/defense satellites.

Loading next visibility...
Identifier
66638, 2025-271X
Orbit
LEO
Country
Flag of USUS
Related business
Manufacturer
SpaceX/Seattle
Mission
Operational Commercial Communications
Bus & Motor
STARLINK V2MO, Unknown motor
Mass
575 kg wet, ~530 kg dry
Launch date (UTC)
2025-11-23 (2 months ago)
Launch vehicle
FALCON 9
Launch site
Air Force Western Test Range (AFWTR)
Object type
Payload
Rocket body
Debris
Shape & HBR
Box + 2 Pan, 17.7 m
Radar Cross Section
36.964 m²

Expand to show TLE details & history
Last TLE update: 7 hours ago

TLE from 7 hours ago
0 STARLINK-35972
1 66638U 25271X   26037.08122784  .00031750  00000-0  10804-2 0  9997
2 66638  53.1591 287.0097 0001282  79.6155 280.4990 15.30173916 12724
Epoch: 2026-02-06T01:56Z
TLE epoch observation values (Epoch: 2026-02-06T01:56:58.085Z)
Latitude
-0.00003°
Longitude
121.54343°
Altitude
476.033 km
Speed
7.629 km/s
True Right ascension
19h 08m 02s
True Declination
0° 00' 00"
Sunlit
Object was in daylight at epoch
Visualization orbit readout
Latitude
Unknown
Longitude
Unknown
Altitude
Unknown
Speed
Unknown
Apparent Right ascension
Unknown
Apparent Declination
Unknown
Sunlit
N/A
Visualization observer readout
Local Sidereal Time
10:35:28
Azimuth
Unknown
Elevation
Unknown
Doppler factor
Unknown
Orbital elements
Apogee altitude
476.428 km
Perigee altitude
474.671 km
Semi-major axis
6,853.687 km
Eccentricity
0.00013
Inclination
53.1591°
RAAN
287.0097°
Arg. of periapsis
79.6155°
True anomaly
280.48455°
Mean anomaly
280.499°
Eccentric anomaly
280.49178°
Mean motion
3.82522 °/min
Orbital period
94.11 mins
BSTAR
0.0010804
Loading maneuver chart data...
Computing Atmospheric mass density...
Loading historical data...
Loading historical data...
Loading historical data...
Loading historical data...
Loading historical data...
Loading historical data...
Loading historical data...

Documentation

Showing up to 5 results
|